Flag for Uruguay Weather past 2 weeks in Minas, Uruguay

Now
54 °F

Clear.


Feels Like: 52 °F
Forecast: 39 / 67 °F
Wind: 6 mph from Northwest

Location: Capitan Corbeta

Current Time: May 5, 2015 at 9:18:39 AM

Latest Report: May 5, 2015 at 9:00 AM


Visibility: 5 mi

Pressure: 30.07 "Hg

Humidity: 72%

Dew point: 45 °F

Location of MinasLocation

Historic Weather in Minas — Graph

°F

Minas temperature yesterday

Maximum temperature yesterday: 63 °F (at 2:00 PM)
Minimum temperature yesterday: 43 °F (at 6:00 AM)
Average temperature yesterday: 53 °F

Past Weeks' High & Low Weather Summary

 TemperatureHumidityPressure
High81 °F (Apr 26, 1:00 PM)94% (Apr 22, 8:00 AM)30.24 "Hg (Apr 22, 8:00 AM)
Low43 °F (May 4, 6:00 AM)28% (Apr 26, 1:00 PM)29.56 "Hg (May 2, 5:00 PM)
Average61 °F69%30.05 "Hg
* Reported Apr 20 8:00 AM — May 5 8:00 AM, Minas, Weather by CustomWeather, © 2015

Note: Actual official high and low records may vary slightly from our data, if they occured in-between our weather recording intervals... More about our weather records

Advertising

Minas weather history for previous 24 hours

 ConditionsComfort  
Time TempWeatherWind HumidityBarometerVisibility
8:00 AM
Tue, May 5
50 °FSunny.6 mph71%30.07 "Hg10 mi
7:00 AM50 °FSunny.8 mph71%30.04 "Hg10 mi
5:00 AM50 °FClear.8 mph67%30.07 "Hg10 mi
1:00 AM48 °FClear.6 mph76%30.01 "Hg10 mi
12:00 AM50 °FClear.5 mph71%30.01 "Hg10 mi
11:00 PM
Mon, May 4
48 °FClear.5 mph76%30.01 "Hg10 mi
10:00 PM48 °FClear.6 mph76%30.01 "Hg10 mi
9:00 PM50 °FClear.5 mph71%30.01 "Hg10 mi
8:00 PM50 °FClear.5 mph71%29.98 "Hg10 mi
7:00 PM52 °FClear.5 mph72%29.98 "Hg10 mi
6:00 PM55 °FClear.5 mph59%29.95 "Hg10 mi
4:00 PM63 °FPassing clouds.12 mph42%29.95 "HgN/A
3:00 PM63 °FPassing clouds.13 mph45%29.95 "HgN/A
2:00 PM63 °FPassing clouds.12 mph42%29.95 "HgN/A
1:00 PM61 °FSunny.12 mph39%30.01 "Hg10 mi
12:00 PM61 °FPassing clouds.12 mph48%29.95 "HgN/A
11:00 AM59 °FPassing clouds.12 mph48%29.95 "HgN/A
10:00 AM55 °FPassing clouds.12 mph59%29.95 "HgN/A
9:00 AM50 °FPassing clouds.10 mph67%29.95 "HgN/A
Weather by CustomWeather, © 2015

See weather overviewHow to use our weather pages